Time,TemperatureF,DewpointF,PressureIn,WindDirection,WindDirectionDegrees,WindSpeedMPH,WindSpeedGustMPH,Humidity,HourlyPrecipIn,Conditions,Clouds,dailyrainin,SoftwareType,DateUTC
2013-02-28 00:00:00,48.0,37.2,29.64,WSW,248,8.0,19.0,66,0.00,,,0.00,Weather View 32 v70,2013-02-28 05:00:00,
2013-02-28 00:05:00,48.0,37.5,29.64,WSW,248,5.0,16.0,67,0.00,,,0.00,Weather View 32 v70,2013-02-28 05:05:00,
2013-02-28 00:10:00,48.0,37.5,29.64,WSW,248,6.0,16.0,67,0.00,,,0.00,Weather View 32 v70,2013-02-28 05:10:00,
2013-02-28 00:15:00,48.0,37.5,29.64,NNW,338,3.0,16.0,67,0.00,,,0.00,Weather View 32 v70,2013-02-28 05:15:00,
2013-02-28 00:20:00,47.0,37.0,29.64,West,270,5.0,16.0,68,0.00,,,0.00,Weather View 32 v70,2013-02-28 05:20:00,
2013-02-28 00:25:00,47.0,37.0,29.64,WSW,248,10.0,16.0,68,0.00,,,0.00,Weather View 32 v70,2013-02-28 05:25:00,
2013-02-28 00:30:00,47.0,37.0,29.64,WSW,248,4.0,16.0,68,0.00,,,0.00,Weather View 32 v70,2013-02-28 05:30:00,
2013-02-28 00:35:00,47.0,37.3,29.65,WSW,248,4.0,15.0,69,0.00,,,0.00,Weather View 32 v70,2013-02-28 05:35:00,
2013-02-28 00:40:00,47.0,37.3,29.65,West,270,5.0,14.0,69,0.00,,,0.00,Weather View 32 v70,2013-02-28 05:40:00,
2013-02-28 00:45:00,47.0,37.3,29.64,WSW,248,5.0,14.0,69,0.00,,,0.00,Weather View 32 v70,2013-02-28 05:45:00,
2013-02-28 00:50:00,47.0,37.3,29.65,WSW,248,3.0,14.0,69,0.00,,,0.00,Weather View 32 v70,2013-02-28 05:50:00,
2013-02-28 00:55:00,46.0,36.8,29.65,West,270,3.0,14.0,70,0.00,,,0.00,Weather View 32 v70,2013-02-28 05:55:00,
2013-02-28 01:00:00,46.0,37.1,29.65,West,270,4.0,13.0,71,0.00,,,0.00,Weather View 32 v70,2013-02-28 06:00:00,
2013-02-28 01:05:00,46.0,37.1,29.65,WSW,248,5.0,11.0,71,0.00,,,0.00,Weather View 32 v70,2013-02-28 06:05:00,
2013-02-28 01:10:00,45.0,36.5,29.65,WSW,248,5.0,11.0,72,0.00,,,0.00,Weather View 32 v70,2013-02-28 06:10:00,
2013-02-28 01:15:00,45.0,36.9,29.65,WSW,248,6.0,11.0,73,0.00,,,0.00,Weather View 32 v70,2013-02-28 06:15:00,
2013-02-28 01:20:00,45.0,37.2,29.65,WSW,248,3.0,11.0,74,0.00,,,0.00,Weather View 32 v70,2013-02-28 06:20:00,
2013-02-28 01:25:00,45.0,37.2,29.65,WSW,248,4.0,11.0,74,0.00,,,0.00,Weather View 32 v70,2013-02-28 06:25:00,
2013-02-28 01:30:00,45.0,37.5,29.65,WSW,248,8.0,10.0,75,0.00,,,0.00,Weather View 32 v70,2013-02-28 06:30:00,
2013-02-28 01:35:00,44.0,36.6,29.65,WSW,248,6.0,10.0,75,0.00,,,0.00,Weather View 32 v70,2013-02-28 06:35:00,
2013-02-28 01:40:00,44.0,36.9,29.65,WSW,248,3.0,9.0,76,0.00,,,0.00,Weather View 32 v70,2013-02-28 06:40:00,
2013-02-28 01:45:00,44.0,36.9,29.65,WSW,248,3.0,9.0,76,0.00,,,0.00,Weather View 32 v70,2013-02-28 06:45:00,
2013-02-28 01:50:00,44.0,37.2,29.65,South,180,3.0,9.0,77,0.00,,,0.00,Weather View 32 v70,2013-02-28 06:50:00,
2013-02-28 01:55:00,44.0,37.2,29.65,NNW,338,3.0,9.0,77,0.00,,,0.00,Weather View 32 v70,2013-02-28 06:55:00,
2013-02-28 02:00:00,44.0,37.2,29.65,NNW,338,1.0,9.0,77,0.00,,,0.00,Weather View 32 v70,2013-02-28 07:00:00,
2013-02-28 02:05:00,43.0,36.3,29.65,ENE,68,0.0,9.0,77,0.00,,,0.00,Weather View 32 v70,2013-02-28 07:05:00,
2013-02-28 02:10:00,43.0,36.6,29.65,NNW,338,1.0,9.0,78,0.00,,,0.00,Weather View 32 v70,2013-02-28 07:10:00,
2013-02-28 02:15:00,43.0,36.6,29.65,South,180,0.0,8.0,78,0.00,,,0.00,Weather View 32 v70,2013-02-28 07:15:00,
2013-02-28 02:20:00,42.0,36.3,29.65,SSE,158,1.0,8.0,80,0.00,,,0.00,Weather View 32 v70,2013-02-28 07:20:00,
2013-02-28 02:25:00,42.0,36.3,29.65,South,180,2.0,8.0,80,0.00,,,0.00,Weather View 32 v70,2013-02-28 07:25:00,
2013-02-28 02:30:00,42.0,36.6,29.65,South,180,3.0,8.0,81,0.00,,,0.00,Weather View 32 v70,2013-02-28 07:30:00,
2013-02-28 02:35:00,42.0,36.9,29.65,South,180,3.0,8.0,82,0.00,,,0.00,Weather View 32 v70,2013-02-28 07:35:00,
2013-02-28 02:40:00,41.0,35.9,29.65,South,180,2.0,8.0,82,0.00,,,0.00,Weather View 32 v70,2013-02-28 07:40:00,
2013-02-28 02:45:00,41.0,36.2,29.65,South,180,4.0,8.0,83,0.00,,,0.00,Weather View 32 v70,2013-02-28 07:45:00,
2013-02-28 02:50:00,41.0,36.5,29.65,South,180,5.0,6.0,84,0.00,,,0.00,Weather View 32 v70,2013-02-28 07:50:00,
2013-02-28 02:55:00,41.0,36.5,29.64,South,180,4.0,6.0,84,0.00,,,0.00,Weather View 32 v70,2013-02-28 07:55:00,
2013-02-28 03:00:00,41.0,36.8,29.64,South,180,3.0,6.0,85,0.00,,,0.00,Weather View 32 v70,2013-02-28 08:00:00,
2013-02-28 03:05:00,41.0,36.8,29.64,SSE,158,2.0,6.0,85,0.00,,,0.00,Weather View 32 v70,2013-02-28 08:05:00,
2013-02-28 03:10:00,41.0,37.1,29.65,South,180,4.0,6.0,86,0.00,,,0.00,Weather View 32 v70,2013-02-28 08:10:00,
2013-02-28 03:15:00,40.0,36.1,29.64,East,90,1.0,6.0,86,0.00,,,0.00,Weather View 32 v70,2013-02-28 08:15:00,
2013-02-28 03:20:00,40.0,36.1,29.64,SSE,158,0.0,6.0,86,0.00,,,0.00,Weather View 32 v70,2013-02-28 08:20:00,
2013-02-28 03:25:00,40.0,36.4,29.64,WSW,248,2.0,6.0,87,0.00,,,0.00,Weather View 32 v70,2013-02-28 08:25:00,
2013-02-28 03:30:00,40.0,36.4,29.64,WSW,248,3.0,6.0,87,0.00,,,0.00,Weather View 32 v70,2013-02-28 08:30:00,
2013-02-28 03:35:00,40.0,36.4,29.64,South,180,3.0,6.0,87,0.00,,,0.00,Weather View 32 v70,2013-02-28 08:35:00,
2013-02-28 03:40:00,40.0,36.4,29.65,East,90,3.0,6.0,87,0.00,,,0.00,Weather View 32 v70,2013-02-28 08:40:00,
2013-02-28 03:45:00,40.0,36.7,29.65,WSW,248,5.0,6.0,88,0.00,,,0.00,Weather View 32 v70,2013-02-28 08:45:00,
2013-02-28 03:50:00,40.0,36.7,29.65,South,180,5.0,9.0,88,0.00,,,0.00,Weather View 32 v70,2013-02-28 08:50:00,
2013-02-28 03:56:00,40.0,36.7,29.65,WSW,248,2.0,9.0,88,0.00,,,0.00,Weather View 32 v70,2013-02-28 08:56:00,
2013-02-28 04:01:00,40.0,37.0,29.65,WSW,248,5.0,9.0,89,0.00,,,0.00,Weather View 32 v70,2013-02-28 09:01:00,
2013-02-28 04:06:00,40.0,37.0,29.65,South,180,3.0,9.0,89,0.00,,,0.00,Weather View 32 v70,2013-02-28 09:06:00,
2013-02-28 04:11:00,40.0,37.0,29.65,South,180,5.0,10.0,89,0.00,,,0.00,Weather View 32 v70,2013-02-28 09:11:00,
2013-02-28 04:16:00,40.0,37.0,29.65,WSW,248,6.0,10.0,89,0.00,,,0.00,Weather View 32 v70,2013-02-28 09:16:00,
2013-02-28 04:21:00,40.0,37.0,29.65,South,180,3.0,10.0,89,0.00,,,0.00,Weather View 32 v70,2013-02-28 09:21:00,
2013-02-28 04:26:00,40.0,37.0,29.65,WSW,248,3.0,10.0,89,0.00,,,0.00,Weather View 32 v70,2013-02-28 09:26:00,
2013-02-28 04:31:00,39.0,36.0,29.65,WSW,248,3.0,10.0,89,0.00,,,0.00,Weather View 32 v70,2013-02-28 09:31:00,
2013-02-28 04:36:00,39.0,36.0,29.65,WSW,248,3.0,10.0,89,0.00,,,0.00,Weather View 32 v70,2013-02-28 09:36:00,
2013-02-28 04:41:00,39.0,36.3,29.65,WSW,248,3.0,10.0,90,0.00,,,0.00,Weather View 32 v70,2013-02-28 09:41:00,
2013-02-28 04:46:00,39.0,36.3,29.65,WSW,248,3.0,10.0,90,0.00,,,0.00,Weather View 32 v70,2013-02-28 09:46:00,
2013-02-28 04:51:00,39.0,36.3,29.66,South,180,3.0,10.0,90,0.00,,,0.00,Weather View 32 v70,2013-02-28 09:51:00,
2013-02-28 04:56:00,38.0,35.6,29.66,WSW,248,3.0,10.0,91,0.00,,,0.00,Weather View 32 v70,2013-02-28 09:56:00,
2013-02-28 05:01:00,38.0,35.6,29.66,WSW,248,3.0,10.0,91,0.00,,,0.00,Weather View 32 v70,2013-02-28 10:01:00,
2013-02-28 05:06:00,38.0,35.6,29.66,West,270,0.0,10.0,91,0.00,,,0.00,Weather View 32 v70,2013-02-28 10:06:00,
2013-02-28 05:11:00,38.0,35.9,29.66,WSW,248,1.0,7.0,92,0.00,,,0.00,Weather View 32 v70,2013-02-28 10:11:00,
2013-02-28 05:16:00,38.0,35.9,29.66,WSW,248,4.0,7.0,92,0.00,,,0.00,Weather View 32 v70,2013-02-28 10:16:00,
2013-02-28 05:21:00,38.0,36.2,29.66,WSW,248,3.0,7.0,93,0.00,,,0.00,Weather View 32 v70,2013-02-28 10:21:00,
2013-02-28 05:26:00,38.0,36.2,29.66,WSW,248,3.0,7.0,93,0.00,,,0.00,Weather View 32 v70,2013-02-28 10:26:00,
2013-02-28 05:31:00,38.0,36.2,29.67,WSW,248,4.0,7.0,93,0.00,,,0.00,Weather View 32 v70,2013-02-28 10:31:00,
2013-02-28 05:36:00,38.0,36.4,29.67,WSW,248,3.0,8.0,94,0.00,,,0.00,Weather View 32 v70,2013-02-28 10:36:00,
2013-02-28 05:41:00,38.0,36.4,29.67,WSW,248,2.0,8.0,94,0.00,,,0.00,Weather View 32 v70,2013-02-28 10:41:00,
2013-02-28 05:46:00,38.0,36.4,29.68,South,180,3.0,8.0,94,0.00,,,0.00,Weather View 32 v70,2013-02-28 10:46:00,
2013-02-28 05:51:00,38.0,36.7,29.68,WSW,248,4.0,8.0,95,0.00,,,0.00,Weather View 32 v70,2013-02-28 10:51:00,
2013-02-28 05:56:00,38.0,36.7,29.68,South,180,4.0,8.0,95,0.00,,,0.00,Weather View 32 v70,2013-02-28 10:56:00,
2013-02-28 06:01:00,38.0,36.7,29.68,South,180,3.0,8.0,95,0.00,,,0.00,Weather View 32 v70,2013-02-28 11:01:00,
2013-02-28 06:06:00,39.0,37.7,29.68,WSW,248,2.0,8.0,95,0.00,,,0.00,Weather View 32 v70,2013-02-28 11:06:00,
2013-02-28 06:11:00,39.0,37.7,29.68,West,270,4.0,8.0,95,0.00,,,0.00,Weather View 32 v70,2013-02-28 11:11:00,
2013-02-28 06:16:00,39.0,37.4,29.69,NNW,338,3.0,8.0,94,0.00,,,0.00,Weather View 32 v70,2013-02-28 11:16:00,
2013-02-28 06:21:00,39.0,37.1,29.69,NNW,338,1.0,8.0,93,0.00,,,0.00,Weather View 32 v70,2013-02-28 11:21:00,
2013-02-28 06:26:00,39.0,36.9,29.69,East,90,0.0,8.0,92,0.00,,,0.00,Weather View 32 v70,2013-02-28 11:26:00,
2013-02-28 06:31:00,39.0,36.9,29.69,West,270,1.0,8.0,92,0.00,,,0.00,Weather View 32 v70,2013-02-28 11:31:00,
2013-02-28 06:37:00,38.0,35.9,29.69,East,90,0.0,8.0,92,0.00,,,0.00,Weather View 32 v70,2013-02-28 11:37:00,
2013-02-28 06:42:00,38.0,36.2,29.69,South,180,0.0,8.0,93,0.00,,,0.00,Weather View 32 v70,2013-02-28 11:42:00,
2013-02-28 06:47:00,38.0,36.2,29.69,WSW,248,2.0,8.0,93,0.00,,,0.00,Weather View 32 v70,2013-02-28 11:47:00,
2013-02-28 06:52:00,37.0,35.4,29.69,South,180,1.0,8.0,94,0.00,,,0.00,Weather View 32 v70,2013-02-28 11:52:00,
2013-02-28 06:57:00,37.0,35.4,29.69,South,180,1.0,8.0,94,0.00,,,0.00,Weather View 32 v70,2013-02-28 11:57:00,
2013-02-28 07:02:00,37.0,35.7,29.69,South,180,1.0,8.0,95,0.00,,,0.00,Weather View 32 v70,2013-02-28 12:02:00,
2013-02-28 07:07:00,37.0,35.7,29.69,SSE,158,1.0,7.0,95,0.00,,,0.00,Weather View 32 v70,2013-02-28 12:07:00,
2013-02-28 07:12:00,37.0,35.7,29.69,SSE,158,1.0,7.0,95,0.00,,,0.00,Weather View 32 v70,2013-02-28 12:12:00,
2013-02-28 07:17:00,37.0,36.0,29.69,South,180,2.0,5.0,96,0.00,,,0.00,Weather View 32 v70,2013-02-28 12:17:00,
2013-02-28 07:22:00,37.0,36.0,29.69,South,180,3.0,4.0,96,0.00,,,0.00,Weather View 32 v70,2013-02-28 12:22:00,
2013-02-28 07:27:00,37.0,36.2,29.69,SSE,158,2.0,4.0,97,0.00,,,0.00,Weather View 32 v70,2013-02-28 12:27:00,
2013-02-28 07:32:00,37.0,36.2,29.69,South,180,2.0,4.0,97,0.00,,,0.00,Weather View 32 v70,2013-02-28 12:32:00,
2013-02-28 07:37:00,37.0,36.2,29.69,South,180,3.0,4.0,97,0.00,,,0.00,Weather View 32 v70,2013-02-28 12:37:00,
2013-02-28 07:42:00,37.0,36.5,29.69,South,180,2.0,4.0,98,0.00,,,0.00,Weather View 32 v70,2013-02-28 12:42:00,
2013-02-28 07:47:00,37.0,36.5,29.69,SSE,158,3.0,4.0,98,0.00,,,0.00,Weather View 32 v70,2013-02-28 12:47:00,
2013-02-28 07:52:00,38.0,37.5,29.70,South,180,2.0,4.0,98,0.00,,,0.00,Weather View 32 v70,2013-02-28 12:52:00,
2013-02-28 07:57:00,38.0,37.7,29.70,South,180,3.0,5.0,99,0.00,,,0.00,Weather View 32 v70,2013-02-28 12:57:00,
2013-02-28 08:02:00,39.0,38.7,29.70,WSW,248,5.0,5.0,99,0.00,,,0.00,Weather View 32 v70,2013-02-28 13:02:00,
2013-02-28 08:07:00,39.0,38.7,29.70,South,180,4.0,5.0,99,0.00,,,0.00,Weather View 32 v70,2013-02-28 13:07:00,
2013-02-28 08:12:00,40.0,39.5,29.70,WSW,248,3.0,6.0,98,0.00,,,0.00,Weather View 32 v70,2013-02-28 13:12:00,
2013-02-28 08:17:00,41.0,40.2,29.70,WSW,248,3.0,7.0,97,0.00,,,0.00,Weather View 32 v70,2013-02-28 13:17:00,
2013-02-28 08:22:00,42.0,40.7,29.70,South,180,3.0,7.0,95,0.00,,,0.00,Weather View 32 v70,2013-02-28 13:22:00,
2013-02-28 08:27:00,43.0,41.1,29.70,WSW,248,4.0,7.0,93,0.00,,,0.00,Weather View 32 v70,2013-02-28 13:27:00,
2013-02-28 08:32:00,44.0,41.3,29.70,South,180,4.0,7.0,90,0.00,,,0.00,Weather View 32 v70,2013-02-28 13:32:00,
2013-02-28 08:37:00,44.0,40.4,29.70,East,90,3.0,11.0,87,0.00,,,0.00,Weather View 32 v70,2013-02-28 13:37:00,
2013-02-28 08:42:00,45.0,41.1,29.70,South,180,2.0,11.0,86,0.00,,,0.00,Weather View 32 v70,2013-02-28 13:42:00,
2013-02-28 08:47:00,45.0,40.8,29.70,South,180,3.0,11.0,85,0.00,,,0.00,Weather View 32 v70,2013-02-28 13:47:00,
2013-02-28 08:52:00,45.0,40.1,29.70,West,270,3.0,11.0,83,0.00,,,0.00,Weather View 32 v70,2013-02-28 13:52:00,
2013-02-28 08:57:00,46.0,40.8,29.70,WSW,248,6.0,11.0,82,0.00,,,0.00,Weather View 32 v70,2013-02-28 13:57:00,
2013-02-28 09:02:00,46.0,40.5,29.71,West,270,5.0,11.0,81,0.00,,,0.00,Weather View 32 v70,2013-02-28 14:02:00,
2013-02-28 09:07:00,46.0,39.8,29.71,West,270,6.0,11.0,79,0.00,,,0.00,Weather View 32 v70,2013-02-28 14:07:00,
2013-02-28 09:12:00,46.0,39.5,29.71,WSW,248,2.0,13.0,78,0.00,,,0.00,Weather View 32 v70,2013-02-28 14:12:00,
2013-02-28 09:17:00,47.0,39.8,29.71,NNW,338,5.0,13.0,76,0.00,,,0.00,Weather View 32 v70,2013-02-28 14:17:00,
2013-02-28 09:23:00,47.0,38.4,29.71,NNW,338,3.0,13.0,72,0.00,,,0.00,Weather View 32 v70,2013-02-28 14:23:00,
2013-02-28 09:28:00,48.0,39.0,29.71,NNW,338,6.0,13.0,71,0.00,,,0.00,Weather View 32 v70,2013-02-28 14:28:00,
2013-02-28 09:33:00,48.0,37.9,29.71,WSW,248,8.0,13.0,68,0.00,,,0.00,Weather View 32 v70,2013-02-28 14:33:00,
2013-02-28 09:38:00,48.0,37.2,29.71,WSW,248,13.0,16.0,66,0.00,,,0.00,Weather View 32 v70,2013-02-28 14:38:00,
2013-02-28 09:43:00,48.0,36.4,29.71,West,270,10.0,18.0,64,0.00,,,0.00,Weather View 32 v70,2013-02-28 14:43:00,
2013-02-28 09:48:00,48.0,36.0,29.71,West,270,10.0,18.0,63,0.00,,,0.00,Weather View 32 v70,2013-02-28 14:48:00,
2013-02-28 09:53:00,48.0,35.6,29.71,NNW,338,5.0,18.0,62,0.00,,,0.00,Weather View 32 v70,2013-02-28 14:53:00,
2013-02-28 09:58:00,48.0,36.0,29.71,West,270,5.0,18.0,63,0.00,,,0.00,Weather View 32 v70,2013-02-28 14:58:00,
2013-02-28 10:03:00,48.0,36.4,29.72,North,0,4.0,18.0,64,0.00,,,0.00,Weather View 32 v70,2013-02-28 15:03:00,
2013-02-28 10:08:00,47.0,35.0,29.72,West,270,3.0,18.0,63,0.00,,,0.00,Weather View 32 v70,2013-02-28 15:08:00,
2013-02-28 10:13:00,47.0,34.2,29.72,West,270,6.0,18.0,61,0.00,,,0.00,Weather View 32 v70,2013-02-28 15:13:00,
2013-02-28 10:18:00,48.0,33.9,29.72,WSW,248,5.0,18.0,58,0.00,,,0.00,Weather View 32 v70,2013-02-28 15:18:00,
2013-02-28 10:23:00,48.0,33.5,29.72,West,270,5.0,18.0,57,0.00,,,0.00,Weather View 32 v70,2013-02-28 15:23:00,
2013-02-28 10:28:00,48.0,33.0,29.72,NNW,338,10.0,18.0,56,0.00,,,0.00,Weather View 32 v70,2013-02-28 15:28:00,
2013-02-28 10:33:00,48.0,32.6,29.72,NNW,338,9.0,18.0,55,0.00,,,0.00,Weather View 32 v70,2013-02-28 15:33:00,
2013-02-28 10:38:00,48.0,33.0,29.72,WSW,248,9.0,18.0,56,0.00,,,0.00,Weather View 32 v70,2013-02-28 15:38:00,
2013-02-28 10:43:00,48.0,32.1,29.72,NNW,338,11.0,16.0,54,0.00,,,0.00,Weather View 32 v70,2013-02-28 15:43:00,
2013-02-28 10:48:00,48.0,31.7,29.72,NNW,338,8.0,16.0,53,0.00,,,0.00,Weather View 32 v70,2013-02-28 15:48:00,
2013-02-28 10:53:00,48.0,32.1,29.72,NNW,338,10.0,16.0,54,0.00,,,0.00,Weather View 32 v70,2013-02-28 15:53:00,
2013-02-28 10:58:00,49.0,33.5,29.71,NNW,338,4.0,16.0,55,0.00,,,0.00,Weather View 32 v70,2013-02-28 15:58:00,
2013-02-28 11:03:00,50.0,34.0,29.72,WSW,248,4.0,16.0,54,0.00,,,0.00,Weather View 32 v70,2013-02-28 16:03:00,
2013-02-28 11:08:00,50.0,33.5,29.72,West,270,8.0,16.0,53,0.00,,,0.00,Weather View 32 v70,2013-02-28 16:08:00,
2013-02-28 11:13:00,49.0,31.6,29.72,NNW,338,6.0,16.0,51,0.00,,,0.00,Weather View 32 v70,2013-02-28 16:13:00,
2013-02-28 11:18:00,50.0,33.0,29.72,NNW,338,3.0,16.0,52,0.00,,,0.00,Weather View 32 v70,2013-02-28 16:18:00,
2013-02-28 11:23:00,50.0,33.0,29.72,West,270,11.0,16.0,52,0.00,,,0.00,Weather View 32 v70,2013-02-28 16:23:00,
2013-02-28 11:28:00,50.0,32.1,29.72,West,270,3.0,16.0,50,0.00,,,0.00,Weather View 32 v70,2013-02-28 16:28:00,
2013-02-28 11:33:00,50.0,32.6,29.72,NNW,338,5.0,16.0,51,0.00,,,0.00,Weather View 32 v70,2013-02-28 16:33:00,
2013-02-28 11:38:00,50.0,32.6,29.72,West,270,3.0,16.0,51,0.00,,,0.00,Weather View 32 v70,2013-02-28 16:38:00,
2013-02-28 11:43:00,50.0,32.6,29.72,South,180,6.0,16.0,51,0.00,,,0.00,Weather View 32 v70,2013-02-28 16:43:00,
2013-02-28 11:48:00,51.0,33.0,29.72,WSW,248,3.0,16.0,50,0.00,,,0.00,Weather View 32 v70,2013-02-28 16:48:00,
2013-02-28 11:53:00,50.0,31.0,29.71,West,270,4.0,16.0,48,0.00,,,0.00,Weather View 32 v70,2013-02-28 16:53:00,
2013-02-28 11:58:00,50.0,32.1,29.71,West,270,4.0,16.0,50,0.00,,,0.00,Weather View 32 v70,2013-02-28 16:58:00,
2013-02-28 12:04:00,50.0,31.0,29.71,NNW,338,6.0,16.0,48,0.00,,,0.00,Weather View 32 v70,2013-02-28 17:04:00,
2013-02-28 12:09:00,51.0,30.4,29.72,NNW,338,11.0,18.0,45,0.00,,,0.00,Weather View 32 v70,2013-02-28 17:09:00,
2013-02-28 12:14:00,50.0,28.9,29.71,West,270,10.0,18.0,44,0.00,,,0.00,Weather View 32 v70,2013-02-28 17:14:00,
2013-02-28 12:19:00,51.0,31.4,29.71,WSW,248,7.0,18.0,47,0.00,,,0.00,Weather View 32 v70,2013-02-28 17:19:00,
2013-02-28 12:24:00,51.0,30.4,29.71,NNW,338,6.0,18.0,45,0.00,,,0.00,Weather View 32 v70,2013-02-28 17:24:00,
2013-02-28 12:29:00,51.0,29.8,29.71,West,270,9.0,25.0,44,0.00,,,0.00,Weather View 32 v70,2013-02-28 17:29:00,
2013-02-28 12:34:00,51.0,29.8,29.71,South,180,16.0,28.0,44,0.00,,,0.00,Weather View 32 v70,2013-02-28 17:34:00,
2013-02-28 12:39:00,52.0,31.3,29.71,NNW,338,7.0,28.0,45,0.00,,,0.00,Weather View 32 v70,2013-02-28 17:39:00,
2013-02-28 12:44:00,52.0,30.7,29.71,West,270,11.0,28.0,44,0.00,,,0.00,Weather View 32 v70,2013-02-28 17:44:00,
2013-02-28 12:49:00,51.0,29.8,29.71,West,270,12.0,28.0,44,0.00,,,0.00,Weather View 32 v70,2013-02-28 17:49:00,
2013-02-28 12:54:00,52.0,30.7,29.71,South,180,3.0,28.0,44,0.00,,,0.00,Weather View 32 v70,2013-02-28 17:54:00,
2013-02-28 12:59:00,51.0,29.8,29.71,West,270,10.0,28.0,44,0.00,,,0.00,Weather View 32 v70,2013-02-28 17:59:00,
2013-02-28 13:04:00,51.0,28.7,29.71,WSW,248,3.0,28.0,42,0.00,,,0.00,Weather View 32 v70,2013-02-28 18:04:00,
2013-02-28 13:09:00,52.0,30.7,29.71,West,270,13.0,28.0,44,0.00,,,0.00,Weather View 32 v70,2013-02-28 18:09:00,
2013-02-28 13:14:00,52.0,30.7,29.71,West,270,5.0,28.0,44,0.00,,,0.00,Weather View 32 v70,2013-02-28 18:14:00,
2013-02-28 13:19:00,52.0,30.7,29.71,NNW,338,8.0,28.0,44,0.00,,,0.00,Weather View 32 v70,2013-02-28 18:19:00,
2013-02-28 13:24:00,52.0,30.7,29.71,West,270,3.0,28.0,44,0.00,,,0.00,Weather View 32 v70,2013-02-28 18:24:00,
2013-02-28 13:29:00,51.0,29.8,29.70,West,270,6.0,28.0,44,0.00,,,0.00,Weather View 32 v70,2013-02-28 18:29:00,
2013-02-28 13:34:00,51.0,30.4,29.71,West,270,7.0,21.0,45,0.00,,,0.00,Weather View 32 v70,2013-02-28 18:34:00,
2013-02-28 13:39:00,52.0,32.4,29.71,WSW,248,5.0,19.0,47,0.00,,,0.00,Weather View 32 v70,2013-02-28 18:39:00,
2013-02-28 13:44:00,51.0,29.8,29.71,West,270,5.0,19.0,44,0.00,,,0.00,Weather View 32 v70,2013-02-28 18:44:00,
2013-02-28 13:49:00,51.0,29.8,29.70,West,270,12.0,19.0,44,0.00,,,0.00,Weather View 32 v70,2013-02-28 18:49:00,
2013-02-28 13:54:00,51.0,30.9,29.70,West,270,8.0,19.0,46,0.00,,,0.00,Weather View 32 v70,2013-02-28 18:54:00,
2013-02-28 13:59:00,51.0,30.4,29.71,West,270,7.0,19.0,45,0.00,,,0.00,Weather View 32 v70,2013-02-28 18:59:00,
2013-02-28 14:04:00,51.0,30.4,29.71,West,270,9.0,19.0,45,0.00,,,0.00,Weather View 32 v70,2013-02-28 19:04:00,
2013-02-28 14:09:00,51.0,29.2,29.71,NNW,338,8.0,19.0,43,0.00,,,0.00,Weather View 32 v70,2013-02-28 19:09:00,
2013-02-28 14:14:00,51.0,29.8,29.71,NNW,338,8.0,19.0,44,0.00,,,0.00,Weather View 32 v70,2013-02-28 19:14:00,
2013-02-28 14:19:00,51.0,29.8,29.71,NNW,338,11.0,19.0,44,0.00,,,0.00,Weather View 32 v70,2013-02-28 19:19:00,
2013-02-28 14:25:00,51.0,30.4,29.71,West,270,10.0,19.0,45,0.00,,,0.00,Weather View 32 v70,2013-02-28 19:25:00,
2013-02-28 14:30:00,51.0,30.4,29.71,WSW,248,10.0,19.0,45,0.00,,,0.00,Weather View 32 v70,2013-02-28 19:30:00,
2013-02-28 14:35:00,51.0,30.4,29.71,West,270,10.0,19.0,45,0.00,,,0.00,Weather View 32 v70,2013-02-28 19:35:00,
2013-02-28 14:40:00,51.0,30.4,29.71,West,270,12.0,19.0,45,0.00,,,0.00,Weather View 32 v70,2013-02-28 19:40:00,
2013-02-28 14:45:00,51.0,30.9,29.71,NNW,338,8.0,19.0,46,0.00,,,0.00,Weather View 32 v70,2013-02-28 19:45:00,
2013-02-28 14:50:00,51.0,30.4,29.72,West,270,5.0,19.0,45,0.00,,,0.00,Weather View 32 v70,2013-02-28 19:50:00,
2013-02-28 14:55:00,51.0,30.4,29.72,WSW,248,6.0,19.0,45,0.00,,,0.00,Weather View 32 v70,2013-02-28 19:55:00,
2013-02-28 15:00:00,51.0,29.8,29.72,NNW,338,8.0,19.0,44,0.00,,,0.00,Weather View 32 v70,2013-02-28 20:00:00,
2013-02-28 15:05:00,51.0,30.4,29.72,WSW,248,6.0,18.0,45,0.00,,,0.00,Weather View 32 v70,2013-02-28 20:05:00,
2013-02-28 15:10:00,51.0,29.8,29.72,West,270,6.0,18.0,44,0.00,,,0.00,Weather View 32 v70,2013-02-28 20:10:00,
2013-02-28 15:15:00,51.0,30.9,29.72,South,180,3.0,18.0,46,0.00,,,0.00,Weather View 32 v70,2013-02-28 20:15:00,
2013-02-28 15:20:00,51.0,30.4,29.71,NNW,338,7.0,18.0,45,0.00,,,0.00,Weather View 32 v70,2013-02-28 20:20:00,
2013-02-28 15:25:00,51.0,30.4,29.71,West,270,8.0,18.0,45,0.00,,,0.00,Weather View 32 v70,2013-02-28 20:25:00,
2013-02-28 15:30:00,51.0,30.4,29.71,West,270,8.0,18.0,45,0.00,,,0.00,Weather View 32 v70,2013-02-28 20:30:00,
2013-02-28 15:35:00,51.0,30.4,29.71,West,270,13.0,18.0,45,0.00,,,0.00,Weather View 32 v70,2013-02-28 20:35:00,
2013-02-28 15:40:00,51.0,30.9,29.72,West,270,11.0,18.0,46,0.00,,,0.00,Weather View 32 v70,2013-02-28 20:40:00,
2013-02-28 15:45:00,52.0,30.7,29.72,NNW,338,5.0,18.0,44,0.00,,,0.00,Weather View 32 v70,2013-02-28 20:45:00,
2013-02-28 15:50:00,52.0,30.7,29.71,NNW,338,9.0,18.0,44,0.00,,,0.00,Weather View 32 v70,2013-02-28 20:50:00,
2013-02-28 15:55:00,52.0,30.7,29.72,West,270,11.0,18.0,44,0.00,,,0.00,Weather View 32 v70,2013-02-28 20:55:00,
2013-02-28 16:00:00,52.0,31.3,29.72,WSW,248,10.0,18.0,45,0.00,,,0.00,Weather View 32 v70,2013-02-28 21:00:00,
2013-02-28 16:05:00,53.0,31.6,29.72,South,180,7.0,18.0,44,0.00,,,0.00,Weather View 32 v70,2013-02-28 21:05:00,
2013-02-28 16:10:00,53.0,31.6,29.72,WSW,248,3.0,18.0,44,0.00,,,0.00,Weather View 32 v70,2013-02-28 21:10:00,
2013-02-28 16:15:00,53.0,31.6,29.72,NNW,338,3.0,18.0,44,0.00,,,0.00,Weather View 32 v70,2013-02-28 21:15:00,
2013-02-28 16:20:00,53.0,31.1,29.72,West,270,11.0,19.0,43,0.00,,,0.00,Weather View 32 v70,2013-02-28 21:20:00,
2013-02-28 16:25:00,52.0,30.2,29.73,West,270,11.0,19.0,43,0.00,,,0.00,Weather View 32 v70,2013-02-28 21:25:00,
2013-02-28 16:30:00,52.0,30.2,29.73,NNW,338,7.0,19.0,43,0.00,,,0.00,Weather View 32 v70,2013-02-28 21:30:00,
2013-02-28 16:35:00,52.0,30.7,29.73,WSW,248,8.0,19.0,44,0.00,,,0.00,Weather View 32 v70,2013-02-28 21:35:00,
2013-02-28 16:40:00,51.0,30.4,29.73,West,270,10.0,19.0,45,0.00,,,0.00,Weather View 32 v70,2013-02-28 21:40:00,
2013-02-28 16:45:00,51.0,29.8,29.73,NNW,338,4.0,19.0,44,0.00,,,0.00,Weather View 32 v70,2013-02-28 21:45:00,
2013-02-28 16:50:00,51.0,29.8,29.73,West,270,7.0,19.0,44,0.00,,,0.00,Weather View 32 v70,2013-02-28 21:50:00,
2013-02-28 16:55:00,51.0,29.8,29.72,NNW,338,8.0,19.0,44,0.00,,,0.00,Weather View 32 v70,2013-02-28 21:55:00,
2013-02-28 17:00:00,51.0,30.4,29.73,West,270,8.0,19.0,45,0.00,,,0.00,Weather View 32 v70,2013-02-28 22:00:00,
2013-02-28 17:05:00,51.0,30.4,29.72,West,270,3.0,19.0,45,0.00,,,0.00,Weather View 32 v70,2013-02-28 22:05:00,
2013-02-28 17:10:00,51.0,30.4,29.72,NNW,338,13.0,19.0,45,0.00,,,0.00,Weather View 32 v70,2013-02-28 22:10:00,
2013-02-28 17:15:00,50.0,29.5,29.73,WSW,248,11.0,19.0,45,0.00,,,0.00,Weather View 32 v70,2013-02-28 22:15:00,
2013-02-28 17:20:00,50.0,30.0,29.73,WSW,248,9.0,18.0,46,0.00,,,0.00,Weather View 32 v70,2013-02-28 22:20:00,
2013-02-28 17:26:00,50.0,30.0,29.73,WSW,248,5.0,16.0,46,0.00,,,0.00,Weather View 32 v70,2013-02-28 22:26:00,
2013-02-28 17:31:00,50.0,30.0,29.73,West,270,5.0,16.0,46,0.00,,,0.00,Weather View 32 v70,2013-02-28 22:31:00,
2013-02-28 17:36:00,50.0,30.0,29.74,WSW,248,6.0,16.0,46,0.00,,,0.00,Weather View 32 v70,2013-02-28 22:36:00,
2013-02-28 17:41:00,49.0,29.1,29.73,WSW,248,5.0,16.0,46,0.00,,,0.00,Weather View 32 v70,2013-02-28 22:41:00,
2013-02-28 17:46:00,49.0,29.6,29.74,NNW,338,6.0,17.0,47,0.00,,,0.00,Weather View 32 v70,2013-02-28 22:46:00,
2013-02-28 17:51:00,49.0,30.1,29.74,NNW,338,4.0,17.0,48,0.00,,,0.00,Weather View 32 v70,2013-02-28 22:51:00,
2013-02-28 17:56:00,49.0,29.6,29.74,NNW,338,5.0,17.0,47,0.00,,,0.00,Weather View 32 v70,2013-02-28 22:56:00,
2013-02-28 18:01:00,49.0,30.1,29.74,NNW,338,6.0,17.0,48,0.00,,,0.00,Weather View 32 v70,2013-02-28 23:01:00,
2013-02-28 18:06:00,49.0,30.1,29.74,NNW,338,3.0,17.0,48,0.00,,,0.00,Weather View 32 v70,2013-02-28 23:06:00,
2013-02-28 18:11:00,49.0,31.1,29.74,NNW,338,5.0,17.0,50,0.00,,,0.00,Weather View 32 v70,2013-02-28 23:11:00,
2013-02-28 18:16:00,48.0,30.2,29.74,NNW,338,6.0,17.0,50,0.00,,,0.00,Weather View 32 v70,2013-02-28 23:16:00,
2013-02-28 18:21:00,48.0,30.2,29.74,NNW,338,5.0,17.0,50,0.00,,,0.00,Weather View 32 v70,2013-02-28 23:21:00,
2013-02-28 18:26:00,48.0,30.7,29.74,West,270,8.0,17.0,51,0.00,,,0.00,Weather View 32 v70,2013-02-28 23:26:00,
2013-02-28 18:31:00,48.0,30.7,29.75,NNW,338,8.0,17.0,51,0.00,,,0.00,Weather View 32 v70,2013-02-28 23:31:00,
2013-02-28 18:36:00,48.0,30.7,29.75,NNW,338,5.0,17.0,51,0.00,,,0.00,Weather View 32 v70,2013-02-28 23:36:00,
2013-02-28 18:41:00,47.0,30.3,29.75,North,0,5.0,17.0,52,0.00,,,0.00,Weather View 32 v70,2013-02-28 23:41:00,
2013-02-28 18:46:00,47.0,30.3,29.76,NNW,338,6.0,13.0,52,0.00,,,0.00,Weather View 32 v70,2013-02-28 23:46:00,
2013-02-28 18:51:00,47.0,30.3,29.76,NNW,338,2.0,13.0,52,0.00,,,0.00,Weather View 32 v70,2013-02-28 23:51:00,
2013-02-28 18:56:00,46.0,29.3,29.76,ENE,68,2.0,13.0,52,0.00,,,0.00,Weather View 32 v70,2013-02-28 23:56:00,
2013-02-28 19:01:00,46.0,29.3,29.77,NNW,338,7.0,13.0,52,0.00,,,0.00,Weather View 32 v70,2013-03-01 00:01:00,
2013-02-28 19:06:00,46.0,29.3,29.77,North,0,5.0,13.0,52,0.00,,,0.00,Weather View 32 v70,2013-03-01 00:06:00,
2013-02-28 19:11:00,46.0,29.3,29.77,NNW,338,9.0,13.0,52,0.00,,,0.00,Weather View 32 v70,2013-03-01 00:11:00,
2013-02-28 19:16:00,45.0,28.9,29.77,NNW,338,8.0,14.0,53,0.00,,,0.00,Weather View 32 v70,2013-03-01 00:16:00,
2013-02-28 19:21:00,45.0,28.9,29.77,North,0,4.0,14.0,53,0.00,,,0.00,Weather View 32 v70,2013-03-01 00:21:00,
2013-02-28 19:26:00,45.0,28.9,29.78,North,0,7.0,14.0,53,0.00,,,0.00,Weather View 32 v70,2013-03-01 00:26:00,
2013-02-28 19:31:00,45.0,29.3,29.77,NNW,338,6.0,14.0,54,0.00,,,0.00,Weather View 32 v70,2013-03-01 00:31:00,
2013-02-28 19:36:00,44.0,28.4,29.77,West,270,4.0,14.0,54,0.00,,,0.00,Weather View 32 v70,2013-03-01 00:36:00,
2013-02-28 19:41:00,44.0,28.8,29.77,North,0,2.0,14.0,55,0.00,,,0.00,Weather View 32 v70,2013-03-01 00:41:00,
2013-02-28 19:46:00,44.0,28.8,29.77,ENE,68,3.0,14.0,55,0.00,,,0.00,Weather View 32 v70,2013-03-01 00:46:00,
2013-02-28 19:51:00,44.0,28.8,29.77,NNW,338,4.0,14.0,55,0.00,,,0.00,Weather View 32 v70,2013-03-01 00:51:00,
2013-02-28 19:57:00,44.0,29.3,29.77,NNW,338,5.0,14.0,56,0.00,,,0.00,Weather View 32 v70,2013-03-01 00:57:00,
2013-02-28 20:02:00,43.0,28.8,29.77,NNW,338,6.0,14.0,57,0.00,,,0.00,Weather View 32 v70,2013-03-01 01:02:00,
2013-02-28 20:07:00,43.0,28.8,29.77,North,0,5.0,14.0,57,0.00,,,0.00,Weather View 32 v70,2013-03-01 01:07:00,
2013-02-28 20:12:00,43.0,28.8,29.77,NNW,338,8.0,14.0,57,0.00,,,0.00,Weather View 32 v70,2013-03-01 01:12:00,
2013-02-28 20:17:00,43.0,29.2,29.77,NNW,338,5.0,14.0,58,0.00,,,0.00,Weather View 32 v70,2013-03-01 01:17:00,
2013-02-28 20:22:00,43.0,29.2,29.77,NNW,338,3.0,14.0,58,0.00,,,0.00,Weather View 32 v70,2013-03-01 01:22:00,
2013-02-28 20:27:00,43.0,29.2,29.77,NNW,338,3.0,14.0,58,0.00,,,0.00,Weather View 32 v70,2013-03-01 01:27:00,
2013-02-28 20:32:00,42.0,28.7,29.77,West,270,3.0,14.0,59,0.00,,,0.00,Weather View 32 v70,2013-03-01 01:32:00,
2013-02-28 20:37:00,42.0,29.1,29.77,West,270,6.0,14.0,60,0.00,,,0.00,Weather View 32 v70,2013-03-01 01:37:00,
2013-02-28 20:42:00,42.0,29.5,29.78,NNW,338,1.0,10.0,61,0.00,,,0.00,Weather View 32 v70,2013-03-01 01:42:00,
2013-02-28 20:47:00,42.0,29.5,29.78,NNW,338,5.0,10.0,61,0.00,,,0.00,Weather View 32 v70,2013-03-01 01:47:00,
2013-02-28 20:52:00,42.0,29.5,29.78,NNW,338,6.0,10.0,61,0.00,,,0.00,Weather View 32 v70,2013-03-01 01:52:00,
2013-02-28 20:57:00,42.0,29.5,29.78,NNW,338,11.0,11.0,61,0.00,,,0.00,Weather View 32 v70,2013-03-01 01:57:00,
2013-02-28 21:02:00,42.0,29.5,29.78,WSW,248,6.0,14.0,61,0.00,,,0.00,Weather View 32 v70,2013-03-01 02:02:00,
2013-02-28 21:07:00,42.0,29.9,29.78,NNW,338,4.0,14.0,62,0.00,,,0.00,Weather View 32 v70,2013-03-01 02:07:00,
2013-02-28 21:12:00,42.0,29.9,29.78,North,0,2.0,14.0,62,0.00,,,0.00,Weather View 32 v70,2013-03-01 02:12:00,
2013-02-28 21:17:00,41.0,29.0,29.78,NNW,338,5.0,14.0,62,0.00,,,0.00,Weather View 32 v70,2013-03-01 02:17:00,
2013-02-28 21:22:00,41.0,29.4,29.79,NNW,338,1.0,14.0,63,0.00,,,0.00,Weather View 32 v70,2013-03-01 02:22:00,
2013-02-28 21:27:00,41.0,29.7,29.79,NNW,338,1.0,14.0,64,0.00,,,0.00,Weather View 32 v70,2013-03-01 02:27:00,
2013-02-28 21:32:00,41.0,29.7,29.79,NNW,338,5.0,14.0,64,0.00,,,0.00,Weather View 32 v70,2013-03-01 02:32:00,
2013-02-28 21:37:00,41.0,30.1,29.79,West,270,4.0,14.0,65,0.00,,,0.00,Weather View 32 v70,2013-03-01 02:37:00,
2013-02-28 21:42:00,40.0,29.2,29.79,West,270,3.0,14.0,65,0.00,,,0.00,Weather View 32 v70,2013-03-01 02:42:00,
2013-02-28 21:47:00,40.0,29.2,29.79,West,270,3.0,14.0,65,0.00,,,0.00,Weather View 32 v70,2013-03-01 02:47:00,
2013-02-28 21:52:00,40.0,29.5,29.80,West,270,2.0,14.0,66,0.00,,,0.00,Weather View 32 v70,2013-03-01 02:52:00,
2013-02-28 21:57:00,40.0,29.5,29.80,North,0,2.0,14.0,66,0.00,,,0.00,Weather View 32 v70,2013-03-01 02:57:00,
2013-02-28 22:02:00,40.0,29.5,29.79,West,270,3.0,11.0,66,0.00,,,0.00,Weather View 32 v70,2013-03-01 03:02:00,
2013-02-28 22:07:00,40.0,29.9,29.80,West,270,4.0,9.0,67,0.00,,,0.00,Weather View 32 v70,2013-03-01 03:07:00,
2013-02-28 22:12:00,39.0,29.0,29.80,West,270,3.0,9.0,67,0.00,,,0.00,Weather View 32 v70,2013-03-01 03:12:00,
2013-02-28 22:17:00,39.0,29.0,29.80,North,0,1.0,9.0,67,0.00,,,0.00,Weather View 32 v70,2013-03-01 03:17:00,
2013-02-28 22:22:00,39.0,29.3,29.80,NNW,338,3.0,9.0,68,0.00,,,0.00,Weather View 32 v70,2013-03-01 03:22:00,
2013-02-28 22:27:00,39.0,29.3,29.80,NNW,338,5.0,9.0,68,0.00,,,0.00,Weather View 32 v70,2013-03-01 03:27:00,
2013-02-28 22:32:00,39.0,29.7,29.80,NNW,338,3.0,9.0,69,0.00,,,0.00,Weather View 32 v70,2013-03-01 03:32:00,
2013-02-28 22:37:00,38.0,29.1,29.80,North,0,1.0,9.0,70,0.01,,,0.00,Weather View 32 v70,2013-03-01 03:37:00,
2013-02-28 22:42:00,38.0,29.1,29.80,West,270,3.0,9.0,70,0.00,,,0.00,Weather View 32 v70,2013-03-01 03:42:00,
2013-02-28 22:47:00,38.0,29.4,29.80,NNW,338,4.0,9.0,71,0.00,,,0.00,Weather View 32 v70,2013-03-01 03:47:00,
2013-02-28 22:52:00,38.0,29.8,29.80,North,0,3.0,7.0,72,0.00,,,0.00,Weather View 32 v70,2013-03-01 03:52:00,
2013-02-28 22:58:00,38.0,29.8,29.80,West,270,3.0,6.0,72,0.00,,,0.00,Weather View 32 v70,2013-03-01 03:58:00,
2013-02-28 23:03:00,38.0,29.8,29.80,NNW,338,3.0,6.0,72,0.00,,,0.00,Weather View 32 v70,2013-03-01 04:03:00,
2013-02-28 23:08:00,38.0,29.8,29.80,NNW,338,2.0,6.0,72,0.00,,,0.00,Weather View 32 v70,2013-03-01 04:08:00,
2013-02-28 23:13:00,37.0,29.1,29.80,West,270,2.0,6.0,73,0.00,,,0.00,Weather View 32 v70,2013-03-01 04:13:00,
2013-02-28 23:18:00,37.0,29.1,29.80,West,270,3.0,6.0,73,0.00,,,0.00,Weather View 32 v70,2013-03-01 04:18:00,
2013-02-28 23:23:00,37.0,29.1,29.80,West,270,5.0,6.0,73,0.00,,,0.00,Weather View 32 v70,2013-03-01 04:23:00,
2013-02-28 23:28:00,37.0,29.1,29.80,East,90,1.0,6.0,73,0.00,,,0.00,Weather View 32 v70,2013-03-01 04:28:00,
2013-02-28 23:33:00,38.0,30.1,29.80,South,180,1.0,7.0,73,0.00,,,0.00,Weather View 32 v70,2013-03-01 04:33:00,
2013-02-28 23:38:00,38.0,30.1,29.80,NNW,338,4.0,7.0,73,0.00,,,0.00,Weather View 32 v70,2013-03-01 04:38:00,
2013-02-28 23:43:00,38.0,29.8,29.80,West,270,3.0,7.0,72,0.00,,,0.00,Weather View 32 v70,2013-03-01 04:43:00,
2013-02-28 23:48:00,38.0,29.8,29.80,NNW,338,3.0,7.0,72,0.00,,,0.00,Weather View 32 v70,2013-03-01 04:48:00,
2013-02-28 23:53:00,38.0,29.8,29.81,West,270,5.0,7.0,72,0.00,,,0.00,Weather View 32 v70,2013-03-01 04:53:00,
2013-02-28 23:58:00,38.0,30.1,29.80,West,270,3.0,9.0,73,0.00,,,0.00,Weather View 32 v70,2013-03-01 04:58:00,